Ypsilanti, MI

2:48 PM EST on November 13, 2019 (GMT -0500)
Willow Run

Weather History for KYIP - October, 2019

Change the Weather History Date:

Tuesday, October 22, 2019

  Actual Average Record
Temperature  
Mean Temperature 57 °F -  
Max Temperature 64 °F 58 °F 82 °F (2017)
Min Temperature 50 °F 41 °F 28 °F (2008)
Degree Days  
Heating Degree Days 8    
Growing Degree Days 7 (Base 50)    
Moisture  
Dew Point 45 °F    
Average Humidity 69    
Maximum Humidity 81    
Minimum Humidity 49    
Precipitation  
Precipitation 0.05 in - - ()
Sea Level Pressure  
Sea Level Pressure 29.67 in    
Wind  
Wind Speed 13 mph ()    
Max Wind Speed 26 mph    
Max Gust Speed 48 mph    
Visibility 9.7 miles    
Events Rain    
Averages and records for this station are not official NWS values.
T = Trace of Precipitation, MM = Missing Value Source: Averaged Metar Reports

Daily Weather History Graph

Daily Weather History Graph

Search for Another Location

Airport or City:

Astronomy

Oct. 22, 2019 Rise Set
Actual Time 7:54 AM EDT 6:41 PM EDT
Civil Twilight 7:26 AM EDT 7:10 PM EDT
Nautical Twilight 6:53 AM EDT 7:42 PM EDT
Astronomical Twilight 6:21 AM EDT 8:15 PM EDT
Moon 12:54 AM EDT (10/22) 3:59 PM EDT (10/22)
Length of Visible Light 11h 44m
Length of Day
10h 46m
Last Quarter, 37% of the Moon is Illuminated
Oct 22
Last Quarter
Oct 27
New
Nov 4
First Quarter
Nov 12
Full
Nov 19
Last Quarter

Hourly Weather History & Observations

Time (EDT) Temp. Dew Point Humidity Pressure Visibility Wind Dir Wind Speed Gust Speed Precip Events Conditions
12:35 AM 64.0 °F 57.0 °F 78% 29.64 in 10.0 mi South 11.5 mph - N/A   Mostly Cloudy
12:53 AM 64.0 °F 57.0 °F 78% 29.63 in 10.0 mi SSW 15.0 mph 26.5 mph N/A   Partly Cloudy
1:46 AM 64.0 °F 57.0 °F 78% 29.64 in 10.0 mi South 12.7 mph 24.2 mph N/A   Mostly Cloudy
1:53 AM 63.0 °F 57.0 °F 81% 29.63 in 10.0 mi South 16.1 mph 23.0 mph N/A   Mostly Cloudy
2:53 AM 57.0 °F 51.1 °F 81% 29.68 in 10.0 mi West 11.5 mph - 0.02 in   Overcast
3:53 AM 55.0 °F 48.0 °F 77% 29.66 in 10.0 mi SSW 8.1 mph - N/A   Clear
4:53 AM 52.0 °F 45.0 °F 77% 29.65 in 10.0 mi South 8.1 mph - N/A   Clear
5:53 AM 52.0 °F 44.1 °F 74% 29.64 in 10.0 mi South 10.4 mph - N/A   Clear
6:53 AM 52.0 °F 44.1 °F 74% 29.65 in 10.0 mi South 13.8 mph - N/A   Clear
7:53 AM 51.1 °F 43.0 °F 74% 29.65 in 10.0 mi South 10.4 mph - N/A   Clear
8:30 AM 52.0 °F 43.0 °F 71% 29.65 in 10.0 mi South 11.5 mph - N/A   Partly Cloudy
8:53 AM 53.1 °F 43.0 °F 69% 29.65 in 10.0 mi SSW 13.8 mph - N/A   Clear
9:01 AM 54.0 °F 43.0 °F 66% 29.65 in 10.0 mi SSW 12.7 mph 23.0 mph N/A   Partly Cloudy
9:53 AM 55.0 °F 43.0 °F 64% 29.64 in 10.0 mi SSW 19.6 mph 27.6 mph N/A   Clear
10:53 AM 57.0 °F 43.0 °F 59% 29.63 in 10.0 mi SW 17.3 mph 28.8 mph N/A   Clear
11:53 AM 55.9 °F 39.9 °F 55% 29.63 in 10.0 mi SW 23.0 mph 34.5 mph N/A   Mostly Cloudy
12:53 PM 57.9 °F 39.9 °F 51% 29.62 in 10.0 mi SW 26.5 mph 36.8 mph N/A   Mostly Cloudy
1:53 PM 57.9 °F 39.0 °F 49% 29.63 in 10.0 mi SSW 19.6 mph 33.4 mph N/A   Overcast
2:53 PM 57.0 °F 39.0 °F 51% 29.64 in 10.0 mi SW 23.0 mph 38.0 mph N/A   Overcast
3:53 PM 51.1 °F 41.0 °F 68% 29.68 in 3.0 mi SW 24.2 mph 48.3 mph 0.02 in Rain Rain
4:53 PM 53.1 °F 43.0 °F 69% 29.68 in 10.0 mi SW 17.3 mph 28.8 mph 0.00 in   Overcast
5:53 PM 51.1 °F 41.0 °F 68% 29.71 in 10.0 mi WSW 20.7 mph 31.1 mph 0.00 in Rain Light Rain
6:53 PM 50.0 °F 42.1 °F 74% 29.73 in 8.0 mi SW 18.4 mph 40.3 mph 0.01 in Rain Light Rain
7:53 PM 50.0 °F 41.0 °F 71% 29.75 in 10.0 mi SW 16.1 mph - 0.00 in   Overcast
8:53 PM 50.0 °F 41.0 °F 71% 29.76 in 10.0 mi SW 10.4 mph - N/A   Overcast
9:53 PM 50.0 °F 42.1 °F 74% 29.76 in 10.0 mi SSW 10.4 mph - 0.00 in Rain Light Rain
10:53 PM 51.1 °F 41.0 °F 68% 29.77 in 10.0 mi SSW 16.1 mph 26.5 mph 0.00 in   Overcast
11:53 PM 50.0 °F 39.9 °F 68% 29.78 in 10.0 mi SW 16.1 mph - N/A   Clear